Location: Ajisawe
(8.4333°N, 4.3833°E)
Time: 13:01:06
(UTC+00:00)

Courier 1B Rocket - Pass Details

Date: 28 April 2021
Orbit: 920 x 1202 km, 28.3° (Epoch: 10 May)

Event Time Altitude Azimuth Distance (km) Brightness Sun altitude
Rises 22:05:10 0° 302° (WNW) 3,724 8.5 -57.2°
Enters shadow 22:06:05 - 303° (WNW) 3,403 8.3 -57.4°
Reaches altitude 10° 22:07:47 10° 305° (NW) 2,814 - -57.7°
Maximum altitude 22:14:40 71° 28° (NNE) 1,141 - -58.9°
Drops below altitude 10° 22:22:06 10° 111° (ESE) 3,024 - -60.1°
Sets 22:25:00 0° 114° (ESE) 4,018 - -60.5°
